When you browse on this site, cookies collect data to enhance your experience and personalize the content and advertising you see.
Visit our Privacy Policy to learn more. By continuing to use the site, you agree to this use of cookies and data.
  • Em Portugal
  • Lista de países
  • Para 7 dias
  • Temperatura da água
  • Mapas de satélite
  • Mapa do tempo
  • Widgets de tempo
  • user-avatar
    Iniciar Sessão

    Previsão horária em Dragunsk

    Hoje, 17 Junho, Segunda-feira

    Tempo Temperatura Precipitação Vento Pressão Humidade
    00:00 +18°C° 0 mm 2 m/s 747 mmHg 83%
    01:00 +18°C° 0 mm 2 m/s 748 mmHg 82%
    02:00 +19°C° 0 mm 1 m/s 748 mmHg 77%
    03:00 +19°C° 0 mm 1 m/s 747 mmHg 79%
    04:00 +19°C° 0 mm 1 m/s 747 mmHg 81%
    05:00 +19°C° 0 mm 1 m/s 747 mmHg 83%
    06:00 +20°C° 0 mm 2 m/s 747 mmHg 79%
    07:00 +21°C° 0 mm 2 m/s 748 mmHg 75%
    08:00 +24°C° 0 mm 3 m/s 748 mmHg 71%
    09:00 +25°C° 0 mm 3 m/s 748 mmHg 69%
    10:00 +26°C° 0 mm 3 m/s 747 mmHg 66%
    11:00 +27°C° 0 mm 3 m/s 747 mmHg 63%
    12:00 +27°C° 0.5 mm 3 m/s 747 mmHg 66%
    13:00 +27°C° 0.5 mm 3 m/s 747 mmHg 70%
    14:00 +27°C° 0.5 mm 3 m/s 747 mmHg 73%
    15:00 +27°C° 1.8 mm 3 m/s 747 mmHg 76%
    16:00 +27°C° 1.8 mm 3 m/s 747 mmHg 78%
    17:00 +26°C° 1.8 mm 3 m/s 746 mmHg 81%
    18:00 +25°C° 0.2 mm 3 m/s 746 mmHg 84%
    19:00 +24°C° 0.2 mm 3 m/s 747 mmHg 87%
    20:00 +21°C° 0.2 mm 3 m/s 747 mmHg 91%
    21:00 +20°C° 0 mm 3 m/s 747 mmHg 92%
    22:00 +19°C° 0 mm 3 m/s 747 mmHg 93%
    23:00 +17°C° 0 mm 4 m/s 747 mmHg 94%

    Amanhã, 18 Junho, Terça-feira

    Tempo Temperatura Precipitação Vento Pressão Humidade
    00:00 +17°C° 0 mm 3 m/s 747 mmHg 95%
    01:00 +16°C° 0 mm 3 m/s 747 mmHg 96%
    02:00 +16°C° 0 mm 3 m/s 747 mmHg 97%
    03:00 +16°C° 0 mm 3 m/s 747 mmHg 97%
    04:00 +16°C° 0 mm 3 m/s 747 mmHg 97%
    05:00 +16°C° 0 mm 3 m/s 748 mmHg 97%
    06:00 +17°C° 0 mm 3 m/s 748 mmHg 95%
    07:00 +18°C° 0 mm 3 m/s 748 mmHg 93%
    08:00 +19°C° 0 mm 4 m/s 748 mmHg 91%
    09:00 +19°C° 0 mm 4 m/s 748 mmHg 88%
    10:00 +20°C° 0 mm 4 m/s 749 mmHg 85%
    11:00 +21°C° 0 mm 4 m/s 749 mmHg 82%
    12:00 +22°C° 0.3 mm 4 m/s 749 mmHg 79%
    13:00 +23°C° 0.3 mm 4 m/s 748 mmHg 76%
    14:00 +25°C° 0.3 mm 5 m/s 748 mmHg 74%
    15:00 +25°C° 0.2 mm 5 m/s 748 mmHg 73%
    16:00 +25°C° 0.2 mm 5 m/s 748 mmHg 73%
    17:00 +25°C° 0.2 mm 5 m/s 748 mmHg 73%
    18:00 +22°C° 0 mm 4 m/s 748 mmHg 78%
    19:00 +21°C° 0 mm 3 m/s 749 mmHg 83%
    20:00 +20°C° 0 mm 3 m/s 749 mmHg 87%
    21:00 +19°C° 0 mm 3 m/s 749 mmHg 87%
    22:00 +18°C° 0 mm 3 m/s 749 mmHg 87%
    23:00 +16°C° 0 mm 3 m/s 749 mmHg 86%

    Depois de amanhã, 19 Junho, Quarta-feira

    Tempo Temperatura Precipitação Vento Pressão Humidade
    00:00 +16°C° 0 mm 3 m/s 749 mmHg 85%
    01:00 +15°C° 0 mm 2 m/s 749 mmHg 84%
    02:00 +15°C° 0 mm 2 m/s 749 mmHg 83%
    03:00 +15°C° 0 mm 2 m/s 750 mmHg 83%
    04:00 +15°C° 0 mm 2 m/s 750 mmHg 83%
    05:00 +15°C° 0 mm 2 m/s 750 mmHg 83%
    06:00 +17°C° 0 mm 2 m/s 750 mmHg 78%
    07:00 +19°C° 0 mm 2 m/s 750 mmHg 73%
    08:00 +21°C° 0 mm 2 m/s 750 mmHg 68%
    09:00 +23°C° 0 mm 2 m/s 750 mmHg 62%
    10:00 +24°C° 0 mm 2 m/s 750 mmHg 56%
    11:00 +25°C° 0 mm 2 m/s 750 mmHg 50%
    12:00 +26°C° 0 mm 2 m/s 750 mmHg 49%
    13:00 +26°C° 0 mm 2 m/s 750 mmHg 48%
    14:00 +27°C° 0 mm 2 m/s 750 mmHg 47%
    15:00 +26°C° 0 mm 2 m/s 749 mmHg 52%
    16:00 +26°C° 0 mm 2 m/s 749 mmHg 56%
    17:00 +26°C° 0 mm 2 m/s 749 mmHg 61%
    18:00 +24°C° 0 mm 2 m/s 749 mmHg 65%
    19:00 +21°C° 0 mm 2 m/s 749 mmHg 70%
    20:00 +20°C° 0 mm 1 m/s 749 mmHg 74%
    21:00 +19°C° 0 mm 1 m/s 749 mmHg 76%
    22:00 +18°C° 0 mm 1 m/s 749 mmHg 77%
    23:00 +16°C° 0 mm 1 m/s 749 mmHg 78%

    20 Junho, Quinta-feira

    Tempo Temperatura Precipitação Vento Pressão Humidade
    00:00 +16°C° 0 mm 1 m/s 749 mmHg 80%
    01:00 +16°C° 0 mm 2 m/s 749 mmHg 81%
    02:00 +15°C° 0 mm 2 m/s 749 mmHg 83%
    03:00 +16°C° 0 mm 2 m/s 749 mmHg 83%
    04:00 +16°C° 0 mm 2 m/s 749 mmHg 84%
    05:00 +16°C° 0 mm 2 m/s 749 mmHg 85%
    06:00 +18°C° 0 mm 2 m/s 749 mmHg 80%
    07:00 +20°C° 0 mm 3 m/s 749 mmHg 75%
    08:00 +22°C° 0 mm 3 m/s 749 mmHg 70%
    09:00 +24°C° 0 mm 3 m/s 749 mmHg 66%
    10:00 +25°C° 0 mm 3 m/s 749 mmHg 61%
    11:00 +27°C° 0 mm 4 m/s 749 mmHg 56%
    12:00 +27°C° 0 mm 4 m/s 749 mmHg 55%
    13:00 +27°C° 0 mm 3 m/s 749 mmHg 54%
    14:00 +28°C° 0 mm 3 m/s 748 mmHg 53%
    15:00 +28°C° 0 mm 3 m/s 748 mmHg 55%
    16:00 +28°C° 0 mm 3 m/s 748 mmHg 57%
    17:00 +28°C° 0 mm 3 m/s 748 mmHg 60%
    18:00 +26°C° 0 mm 3 m/s 748 mmHg 66%
    19:00 +24°C° 0 mm 3 m/s 748 mmHg 72%
    20:00 +22°C° 0 mm 3 m/s 748 mmHg 78%
    21:00 +21°C° 0 mm 3 m/s 748 mmHg 81%
    22:00 +20°C° 0 mm 3 m/s 748 mmHg 84%
    23:00 +20°C° 0 mm 3 m/s 748 mmHg 86%

    21 Junho, Sexta-feira

    Tempo Temperatura Precipitação Vento Pressão Humidade
    00:00 +19°C° 0 mm 3 m/s 748 mmHg 88%
    01:00 +19°C° 0 mm 3 m/s 748 mmHg 90%
    02:00 +19°C° 0 mm 3 m/s 748 mmHg 92%
    03:00 +19°C° 0 mm 3 m/s 749 mmHg 91%
    04:00 +19°C° 0 mm 3 m/s 749 mmHg 91%
    05:00 +19°C° 0 mm 3 m/s 749 mmHg 90%
    06:00 +20°C° 0 mm 3 m/s 749 mmHg 84%
    07:00 +22°C° 0 mm 3 m/s 749 mmHg 79%
    08:00 +23°C° 0 mm 4 m/s 749 mmHg 73%
    09:00 +25°C° 0 mm 4 m/s 749 mmHg 68%
    10:00 +26°C° 0 mm 4 m/s 749 mmHg 63%
    11:00 +28°C° 0 mm 4 m/s 749 mmHg 58%
    12:00 +28°C° 0 mm 4 m/s 749 mmHg 58%
    13:00 +28°C° 0 mm 4 m/s 749 mmHg 57%
    14:00 +28°C° 0 mm 4 m/s 748 mmHg 56%
    15:00 +28°C° 0 mm 4 m/s 748 mmHg 59%
    16:00 +28°C° 0 mm 4 m/s 748 mmHg 61%
    17:00 +28°C° 0 mm 3 m/s 748 mmHg 64%
    18:00 +26°C° 0 mm 3 m/s 748 mmHg 68%
    19:00 +25°C° 0 mm 3 m/s 748 mmHg 72%
    20:00 +22°C° 0 mm 3 m/s 748 mmHg 75%
    21:00 +22°C° 0 mm 3 m/s 748 mmHg 76%
    22:00 +21°C° 0 mm 4 m/s 748 mmHg 76%
    23:00 +21°C° 0 mm 4 m/s 748 mmHg 77%

    22 Junho, Sábado

    Tempo Temperatura Precipitação Vento Pressão Humidade
    00:00 +20°C° 0 mm 4 m/s 748 mmHg 79%
    01:00 +20°C° 0 mm 4 m/s 748 mmHg 81%
    02:00 +19°C° 0 mm 3 m/s 748 mmHg 83%
    03:00 +19°C° 0 mm 3 m/s 748 mmHg 83%
    04:00 +20°C° 0 mm 4 m/s 748 mmHg 83%
    05:00 +20°C° 0 mm 4 m/s 748 mmHg 84%
    06:00 +21°C° 0 mm 4 m/s 748 mmHg 80%
    07:00 +23°C° 0 mm 4 m/s 748 mmHg 76%
    08:00 +25°C° 0 mm 5 m/s 748 mmHg 72%
    09:00 +27°C° 0 mm 5 m/s 748 mmHg 68%
    10:00 +28°C° 0 mm 5 m/s 748 mmHg 65%
    11:00 +29°C° 0 mm 5 m/s 748 mmHg 61%
    12:00 +29°C° 0.3 mm 5 m/s 748 mmHg 62%
    13:00 +29°C° 0.3 mm 5 m/s 748 mmHg 62%
    14:00 +30°C° 0.3 mm 5 m/s 748 mmHg 62%
    15:00 +30°C° 0.3 mm 4 m/s 748 mmHg 63%
    16:00 +29°C° 0.3 mm 4 m/s 748 mmHg 64%
    17:00 +29°C° 0.3 mm 3 m/s 748 mmHg 64%
    18:00 +28°C° 0.1 mm 2 m/s 748 mmHg 69%
    19:00 +26°C° 0.1 mm 2 m/s 748 mmHg 74%
    20:00 +24°C° 0.1 mm 1 m/s 748 mmHg 78%
    21:00 +23°C° 0 mm 1 m/s 748 mmHg 81%
    22:00 +23°C° 0 mm 2 m/s 748 mmHg 83%
    23:00 +21°C° 0 mm 2 m/s 748 mmHg 85%
    Mostrar mais